Weather History for KC29 - March, 2013

Change the Weather History Date:

Friday, March 1, 2013

  Actual Average (KMSN) Record (KMSN)
Temperature  
Mean Temperature 15 °F 28 °F  
Max Temperature 27 °F 36 °F 62 °F (1882)
Min Temperature 3 °F 20 °F -29 °F (1962)
Degree Days  
Heating Degree Days 50 37  
Month to date heating degree days 37  
Since 1 July heating degree days 5523  
Cooling Degree Days 0 0  
Month to date cooling degree days 0  
Year to date cooling degree days 0  
Moisture  
Dew Point 14 °F    
Average Humidity 75    
Maximum Humidity 87    
Minimum Humidity 60    
Precipitation  
Precipitation 0.00 in 0.06 in 0.95 in (1932)
Month to date precipitation 0.06  
Year to date precipitation 2.74  
Snow  
Snow 0.00 in 0.30 in 3.00 in (1929)
Month to date snowfall 0.3  
Since 1 July snowfall 41.4  
Snow Depth -    
Sea Level Pressure  
Sea Level Pressure 30.20 in    
Wind  
Wind Speed 8 mph (NNE)    
Max Wind Speed 18 mph    
Max Gust Speed 23 mph    
Visibility 9 miles    
Events      
T = Trace of Precipitation, MM = Missing Value Source: NWS Daily Summary

Daily Weather History Graph

Daily Weather History Graph

Search for Another Location

Airport or City:

Trip Planner

Search our weather history database for the weather conditions in past years. The results will help you decide how hot, cold, wet, or windy it might be!

Date:

Astronomy

Mar. 01, 2013 Rise Set
Actual Time 6:33 AM CST 5:47 PM CST
Civil Twilight 6:05 AM CST 6:16 PM CST
Nautical Twilight 5:32 AM CST 6:49 PM CST
Astronomical Twilight 4:59 AM CST 7:22 PM CST
Moon 10:30 PM CST (3/1) 8:12 AM CST (3/1)
Length of Visible Light 12h 10m
Length of Day
11h 13m
Waning Gibbous, 83% of the Moon is Illuminated
Mar 1
Waning Gibbous
Mar 4
Last Quarter
Mar 11
New
Mar 19
First Quarter
Mar 27
Full

Hourly Weather History & Observations

Time (CST) Temp. Windchill Dew Point Humidity Pressure Visibility Wind Dir Wind Speed Gust Speed Precip Events Conditions
12:15 AM 25.5 °F 16.9 °F 18.5 °F 75% 30.13 in 10.0 mi NE 8.1 mph - N/A   Overcast
12:35 AM 25.3 °F 16.0 °F 18.7 °F 76% 30.13 in 10.0 mi NE 9.2 mph - N/A   Overcast
1:15 AM 25.2 °F 15.7 °F 18.1 °F 75% 30.14 in 10.0 mi NNE 9.2 mph - N/A   Overcast
1:35 AM 25.3 °F 15.3 °F 18.0 °F 74% 30.14 in 10.0 mi North 10.4 mph - N/A   Overcast
2:15 AM 25.3 °F 17.6 °F 16.7 °F 70% 30.14 in 10.0 mi NNE 6.9 mph - N/A   Overcast
2:35 AM 25.2 °F 15.7 °F 16.5 °F 70% 30.13 in 10.0 mi NNE 9.2 mph - N/A   Overcast
2:55 AM 25.0 °F 16.3 °F 16.7 °F 71% 30.13 in 10.0 mi North 8.1 mph - N/A   Overcast
3:35 AM 24.6 °F 17.7 °F 17.2 °F 74% 30.13 in 10.0 mi North 5.8 mph - N/A   Overcast
3:55 AM 24.6 °F 15.8 °F 17.4 °F 74% 30.13 in 10.0 mi North 8.1 mph - N/A   Overcast
4:15 AM 24.4 °F 16.5 °F 17.6 °F 75% 30.14 in 10.0 mi North 6.9 mph - N/A   Overcast
4:35 AM 24.4 °F 15.6 °F 18.0 °F 76% 30.14 in 10.0 mi North 8.1 mph - N/A   Overcast
5:15 AM 24.1 °F 17.0 °F 18.3 °F 79% 30.15 in 10.0 mi North 5.8 mph - N/A   Overcast
5:35 AM 23.9 °F 16.8 °F 18.3 °F 79% 30.16 in 10.0 mi North 5.8 mph - N/A   Overcast
5:55 AM 23.9 °F 15.8 °F 18.5 °F 80% 30.16 in 7.0 mi North 6.9 mph - N/A   Overcast
6:15 AM 23.7 °F 16.6 °F 19.4 °F 84% 30.17 in 3.0 mi North 5.8 mph - N/A   Overcast
6:35 AM 23.5 °F 17.6 °F 19.4 °F 84% 30.17 in 5.0 mi North 4.6 mph - N/A   Overcast
6:55 AM 23.7 °F 14.7 °F 19.4 °F 84% 30.18 in 4.0 mi North 8.1 mph - N/A   Overcast
7:15 AM 23.9 °F 15.0 °F 19.2 °F 82% 30.18 in 7.0 mi North 8.1 mph - N/A   Overcast
7:35 AM 24.3 °F 15.4 °F 18.5 °F 79% 30.18 in 7.0 mi North 8.1 mph - N/A   Overcast
7:55 AM 24.4 °F 14.2 °F 19.4 °F 81% 30.19 in 4.0 mi North 10.4 mph - N/A   Overcast
8:15 AM 24.4 °F 14.9 °F 19.4 °F 81% 30.19 in 2.5 mi North 9.2 mph - N/A   Overcast
8:35 AM 24.6 °F 12.7 °F 19.4 °F 81% 30.20 in 2.0 mi North 13.8 mph 18.4 mph N/A   Overcast
9:15 AM 24.6 °F 12.7 °F 18.7 °F 78% 30.20 in 2.0 mi North 13.8 mph 18.4 mph N/A   Overcast
9:35 AM 24.8 °F 12.4 °F 18.3 °F 76% 30.20 in 2.0 mi NNE 15.0 mph - N/A   Overcast
10:15 AM 25.3 °F 12.2 °F 16.7 °F 70% 30.21 in 7.0 mi NNE 17.3 mph 21.9 mph N/A   Overcast
10:35 AM 25.5 °F 14.3 °F 17.2 °F 71% 30.21 in 10.0 mi NNE 12.7 mph - N/A   Overcast
10:55 AM 25.7 °F 13.5 °F 16.7 °F 69% 30.21 in 10.0 mi NNE 15.0 mph - N/A   Overcast
11:15 AM 25.7 °F 12.3 °F 16.3 °F 68% 30.22 in 10.0 mi NNE 18.4 mph - N/A   Overcast
11:35 AM 25.7 °F 12.7 °F 16.0 °F 67% 30.22 in 10.0 mi NNE 17.3 mph 23.0 mph N/A   Overcast
11:55 AM 26.1 °F 12.7 °F 16.3 °F 67% 30.22 in 10.0 mi NNE 18.4 mph - N/A   Overcast
12:15 PM 26.2 °F 13.8 °F 16.5 °F 67% 30.22 in 10.0 mi NNE 16.1 mph - N/A   Overcast
12:35 PM 26.6 °F 16.8 °F 16.5 °F 66% 30.22 in 10.0 mi NE 10.4 mph - N/A   Overcast
12:55 PM 27.0 °F 18.0 °F 16.7 °F 65% 30.21 in 10.0 mi NE 9.2 mph - N/A   Overcast
1:35 PM 27.1 °F 18.9 °F 17.6 °F 67% 30.20 in 7.0 mi NE 8.1 mph - N/A   Overcast
1:55 PM 26.8 °F 17.7 °F 18.0 °F 69% 30.20 in 5.0 mi NE 9.2 mph - N/A   Overcast
2:15 PM 26.6 °F 17.5 °F 18.5 °F 71% 30.20 in 5.0 mi NE 9.2 mph - N/A   Overcast
2:35 PM 26.8 °F 18.5 °F 18.3 °F 70% 30.20 in 10.0 mi NE 8.1 mph - N/A   Overcast
2:55 PM 27.1 °F 17.5 °F 17.2 °F 66% 30.20 in 10.0 mi NNE 10.4 mph - N/A   Overcast
3:15 PM 27.3 °F 18.4 °F 16.9 °F 65% 30.20 in 10.0 mi NE 9.2 mph - N/A   Overcast
3:35 PM 27.1 °F 18.9 °F 15.6 °F 62% 30.20 in 10.0 mi NE 8.1 mph - N/A   Overcast
3:55 PM 26.6 °F 20.0 °F 15.8 °F 64% 30.20 in 10.0 mi NE 5.8 mph - N/A   Overcast
4:15 PM 26.4 °F 19.8 °F 14.2 °F 60% 30.20 in 10.0 mi NE 5.8 mph - N/A   Mostly Cloudy
4:35 PM 25.9 °F 21.7 °F 14.0 °F 61% 30.21 in 10.0 mi NE 3.5 mph - N/A   Scattered Clouds
4:55 PM 25.0 °F 19.3 °F 13.6 °F 62% 30.21 in 10.0 mi NE 4.6 mph - N/A   Clear
5:15 PM 23.4 °F - 13.6 °F 66% 30.22 in 10.0 mi Calm Calm - N/A   Clear
5:35 PM 17.4 °F - 9.5 °F 71% 30.22 in 10.0 mi Calm Calm - N/A   Clear
5:55 PM 16.3 °F - 11.1 °F 80% 30.22 in 10.0 mi Calm Calm - N/A   Clear
6:15 PM 15.6 °F - 10.0 °F 79% 30.22 in 10.0 mi Calm Calm - N/A   Clear
6:35 PM 13.1 °F - 8.4 °F 82% 30.22 in 10.0 mi Calm Calm - N/A   Clear
6:55 PM 14.7 °F - 10.0 °F 82% 30.23 in 10.0 mi Calm Calm - N/A   Clear
7:15 PM 11.8 °F - 7.0 °F 81% 30.23 in 10.0 mi Calm Calm - N/A   Clear
7:35 PM 11.7 °F - 7.7 °F 84% 30.22 in 10.0 mi Calm Calm - N/A   Clear
7:55 PM 9.9 °F - 5.4 °F 82% 30.23 in 10.0 mi Calm Calm - N/A   Clear
8:15 PM 10.4 °F - 6.4 °F 84% 30.23 in 10.0 mi Calm Calm - N/A   Clear
8:35 PM 10.2 °F - 5.9 °F 83% 30.23 in 10.0 mi Calm Calm - N/A   Clear
8:55 PM 8.8 °F - 5.4 °F 86% 30.23 in 10.0 mi Calm Calm - N/A   Clear
9:15 PM 6.6 °F - 2.8 °F 84% 30.23 in 10.0 mi Calm Calm - N/A   Clear
9:35 PM 8.1 °F - 4.5 °F 85% 30.23 in 10.0 mi Calm Calm - N/A   Clear
9:55 PM 6.6 °F -0.3 °F 2.8 °F 84% 30.23 in 10.0 mi WNW 3.5 mph - N/A   Clear
10:15 PM 7.9 °F - 4.6 °F 87% 30.23 in 10.0 mi Calm Calm - N/A   Clear
10:35 PM 6.6 °F - 3.0 °F 85% 30.23 in 10.0 mi Calm Calm - N/A   Clear
10:55 PM 5.5 °F - 1.8 °F 84% 30.22 in 10.0 mi Calm Calm - N/A   Clear
11:15 PM 9.5 °F - 6.3 °F 87% 30.23 in 10.0 mi Calm Calm - N/A   Clear
11:35 PM 3.6 °F - -0.9 °F 82% 30.22 in 10.0 mi Calm Calm - N/A   Clear
11:55 PM 3.9 °F - -0.4 °F 82% 30.23 in 10.0 mi Calm Calm - N/A   Clear